Home   Weather   Santa María   Past weeks

Flag for Brazil Past Weather in Santa María, Rio Grande do Sul, Brazil — Yesterday and Last 2 Weeks

Now
68 °F

Light rain. Mostly cloudy.


Feels Like: 68 °F
Forecast: 64 / 80 °F
Wind: 12 mph from Southeast

Location: Porto Alegre Aero-Porto

Current Time: Dec 4, 2016 at 6:20:00 am

Latest Report: Dec 4, 2016 at 6:00 am


Visibility: 3 mi

Pressure: 29.74 "Hg

Humidity: 88%

Dew Point: 64 °F

Location of Santa MaríaLocation

Past Weather in Santa María — Graph

°F

Santa María Temperature Yesterday

Maximum temperature yesterday: 79 °F (at 11:00 am)
Minimum temperature yesterday: 68 °F (at 2:00 pm)
Average temperature yesterday: 72 °F

High & Low Weather Summary for the Past Weeks

 TemperatureHumidityPressure
High91 °F (Nov 26, 4:00 pm)94% (Nov 19, 5:00 am)30.21 "Hg (Nov 19, 5:00 am)
Low52 °F (Nov 19, 5:00 am)22% (Dec 3, 12:00 pm)29.71 "Hg (Dec 3, 6:00 pm)
Average71 °F67%29.96 "Hg
* Reported Nov 19 5:00 am — Dec 4 5:00 am, Santa María, Weather by CustomWeather, © 2016

Note: Actual official high and low records may vary slightly from our data, if they occured in-between our weather recording intervals... More about our weather records

Advertising

Santa María Weather History for the Previous 24 Hours

Scroll right to see more
 ConditionsComfort  
Time TempWeatherWind HumidityBarometerVisibility
5:00 am
Sun, Dec 4
66 °FLight rain. Mostly cloudy.12 mph94%29.71 "Hg3 mi
4:00 am68 °FLight rain. Passing clouds.12 mph94%29.71 "Hg5 mi
3:00 am70 °FLight rain. Passing clouds.3 mph94%29.71 "Hg5 mi
2:00 am72 °FPassing clouds.3 mph88%29.71 "Hg5 mi
1:00 am72 °FLight rain. Passing clouds.3 mph88%29.74 "Hg5 mi
12:00 am72 °FPartly cloudy.3 mph88%29.74 "Hg5 mi
11:00 pm
Sat, Dec 3
72 °FLight rain. Passing clouds.6 mph88%29.74 "Hg5 mi
10:00 pm70 °FLight rain. Mostly cloudy.6 mph94%29.74 "Hg5 mi
9:00 pm70 °FLight rain. Mostly cloudy.7 mph88%29.74 "Hg5 mi
8:00 pm70 °FLight rain. More clouds than sun.8 mph88%29.71 "Hg5 mi
7:00 pm70 °FLight rain. Cloudy.9 mph27%29.71 "Hg4 mi
6:00 pm70 °FLight rain. Cloudy.14 mph83%29.71 "Hg4 mi
5:00 pm70 °FLight rain. Cloudy.12 mph27%N/A2 mi
4:00 pm70 °FLight rain. Mostly cloudy.15 mph88%29.74 "Hg2 mi
3:00 pm70 °FRain. Mostly cloudy.5 mph88%29.77 "Hg2 mi
2:00 pm68 °FRain. Mostly cloudy.5 mph94%29.80 "Hg2 mi
1:00 pm70 °FHeavy rain. Mostly cloudy.14 mph88%29.80 "Hg2 mi
12:00 pm77 °FLight rain. More clouds than sun.7 mph22%N/A3 mi
11:00 am79 °FSunny.No wind65%29.77 "Hg10 mi
10:00 am77 °FSunny.No wind74%29.80 "Hg10 mi
9:00 am73 °FPassing clouds.5 mph89%29.80 "HgN/A
8:00 am73 °FClear.5 mph83%29.80 "Hg6 mi
7:00 am72 °FClear.5 mph88%29.80 "Hg5 mi
6:00 am70 °FClear.2 mph88%29.80 "Hg10 mi
Weather by CustomWeather, © 2016

See weather overviewHow to use our weather pages